| time (UTC) | temp C | wind direction | speed KPH | gust KPH | rain 1hr cm | rain 24hr cm | rain mn cm | humidity % | barometer mb |
| 20260506050517 | 16 | 190 | 1.6 | 4.8 | 0.00 | 0.00 | 0.00 | 69 | 1015.5 |
| 20260506044518 | 15 | 0.0 | 0.0 | 0.00 | 0.00 | 0.00 | 68 | 1015.6 | |
| 20260506043515 | 15 | 0.0 | 0.0 | 0.00 | 0.00 | 0.00 | 67 | 1015.5 | |
| 20260506042515 | 15 | 190 | 1.6 | 3.2 | 0.00 | 0.00 | 0.00 | 65 | 1015.3 |
| 20260506041518 | 15 | 192 | 1.6 | 4.8 | 0.00 | 0.00 | 0.00 | 64 | 1015.3 |
| 20260506040516 | 15 | 186 | 3.2 | 6.4 | 0.00 | 0.00 | 0.00 | 64 | 1015.0 |
| 20260506035517 | 15 | 170 | 1.6 | 4.8 | 0.00 | 0.00 | 0.00 | 63 | 1015.1 |
| 20260506034515 | 14 | 189 | 3.2 | 8.0 | 0.00 | 0.00 | 0.00 | 64 | 1015.0 |
| 20260506033517 | 15 | 204 | 3.2 | 6.4 | 0.00 | 0.00 | 0.00 | 64 | 1015.0 |
| 20260506032516 | 15 | 203 | 0.0 | 3.2 | 0.00 | 0.00 | 0.00 | 62 | 1015.0 |
| 20260506031517 | 15 | 201 | 3.2 | 6.4 | 0.00 | 0.00 | 0.00 | 62 | 1014.9 |
| 20260506030517 | 15 | 195 | 3.2 | 8.0 | 0.00 | 0.00 | 0.00 | 65 | 1014.8 |
| 20260506025516 | 14 | 183 | 4.8 | 6.4 | 0.00 | 0.00 | 0.00 | 67 | 1014.6 |
| 20260506024517 | 14 | 175 | 1.6 | 8.0 | 0.00 | 0.00 | 0.00 | 67 | 1014.7 |
| 20260506023515 | 14 | 173 | 3.2 | 6.4 | 0.00 | 0.00 | 0.00 | 67 | 1014.7 |
| 20260506022535 | 15 | 209 | 4.8 | 9.7 | 0.00 | 0.00 | 0.00 | 66 | 1014.7 |
| 20260506021516 | 16 | 180 | 4.8 | 6.4 | 0.00 | 0.00 | 0.00 | 69 | 1014.8 |
| 20260506020518 | 16 | 98 | 3.2 | 6.4 | 0.00 | 0.00 | 0.00 | 70 | 1014.8 |
| 20260506015516 | 16 | 110 | 1.6 | 4.8 | 0.00 | 0.00 | 0.00 | 70 | 1014.8 |
| 20260506014517 | 16 | 109 | 3.2 | 6.4 | 0.00 | 0.00 | 0.00 | 69 | 1014.7 |
| 20260506013518 | 16 | 114 | 3.2 | 8.0 | 0.00 | 0.00 | 0.00 | 67 | 1014.7 |
| 20260506012518 | 16 | 120 | 1.6 | 4.8 | 0.00 | 0.00 | 0.00 | 59 | 1014.8 |
| 20260506011516 | 16 | 132 | 1.6 | 8.0 | 0.00 | 0.00 | 0.00 | 54 | 1014.8 |
| 20260506010516 | 16 | 168 | 6.4 | 12.9 | 0.00 | 0.00 | 0.00 | 55 | 1014.7 |
| 20260506005514 | 16 | 158 | 4.8 | 16.1 | 0.00 | 0.00 | 0.00 | 55 | 1014.7 |
| 20260506004538 | 16 | 163 | 4.8 | 14.5 | 0.00 | 0.00 | 0.00 | 56 | 1014.7 |
| 20260506003517 | 16 | 169 | 6.4 | 14.5 | 0.00 | 0.00 | 0.00 | 58 | 1014.8 |
| 20260506002518 | 15 | 173 | 6.4 | 16.1 | 0.00 | 0.00 | 0.00 | 60 | 1014.7 |
| 20260506001559 | 15 | 168 | 4.8 | 11.3 | 0.00 | 0.00 | 0.00 | 60 | 1014.7 |
| 20260506000515 | 16 | 163 | 3.2 | 8.0 | 0.00 | 0.00 | 0.00 | 59 | 1014.7 |
| 20260505235516 | 16 | 181 | 4.8 | 14.5 | 0.00 | 0.00 | 0.00 | 57 | 1014.8 |
| 20260505234618 | 16 | 185 | 6.4 | 11.3 | 0.00 | 0.00 | 0.00 | 58 | 1014.7 |
| 20260505233557 | 15 | 180 | 4.8 | 12.9 | 0.00 | 0.00 | 0.00 | 59 | 1014.8 |
| 20260505232516 | 15 | 180 | 6.4 | 14.5 | 0.00 | 0.00 | 0.00 | 60 | 1014.9 |
| 20260505231518 | 15 | 178 | 6.4 | 16.1 | 0.00 | 0.00 | 0.00 | 62 | 1015.0 |
| 20260505230515 | 15 | 187 | 8.0 | 16.1 | 0.00 | 0.00 | 0.00 | 61 | 1015.0 |
| 20260505225518 | 15 | 183 | 6.4 | 16.1 | 0.00 | 0.00 | 0.00 | 60 | 1015.1 |
| 20260505224516 | 15 | 195 | 6.4 | 12.9 | 0.00 | 0.00 | 0.00 | 58 | 1015.2 |
| 20260505223516 | 16 | 192 | 8.0 | 14.5 | 0.00 | 0.00 | 0.00 | 56 | 1015.3 |
| 20260505222516 | 16 | 178 | 4.8 | 11.3 | 0.00 | 0.00 | 0.00 | 55 | 1015.2 |
| 20260505221516 | 16 | 168 | 4.8 | 12.9 | 0.00 | 0.00 | 0.00 | 54 | 1015.2 |
| 20260505220517 | 16 | 168 | 4.8 | 14.5 | 0.00 | 0.00 | 0.00 | 54 | 1015.1 |
| 20260505215556 | 16 | 170 | 4.8 | 11.3 | 0.00 | 0.00 | 0.00 | 54 | 1015.1 |
| 20260505214517 | 16 | 170 | 3.2 | 11.3 | 0.00 | 0.00 | 0.00 | 55 | 1015.1 |
| 20260505213516 | 16 | 177 | 6.4 | 14.5 | 0.00 | 0.00 | 0.00 | 54 | 1015.1 |
| 20260505212518 | 16 | 186 | 6.4 | 12.9 | 0.00 | 0.00 | 0.00 | 56 | 1015.1 |
| 20260505211538 | 16 | 186 | 8.0 | 14.5 | 0.00 | 0.00 | 0.00 | 55 | 1015.0 |
| 20260505210538 | 16 | 188 | 6.4 | 16.1 | 0.00 | 0.00 | 0.00 | 55 | 1015.0 |
| 20260505205537 | 16 | 194 | 8.0 | 14.5 | 0.00 | 0.00 | 0.00 | 57 | 1014.9 |
| 20260505204516 | 16 | 176 | 4.8 | 12.9 | 0.00 | 0.00 | 0.00 | 56 | 1014.9 |
| 20260505203515 | 16 | 181 | 4.8 | 9.7 | 0.00 | 0.00 | 0.00 | 56 | 1015.0 |
| 20260505202516 | 16 | 170 | 4.8 | 8.0 | 0.00 | 0.00 | 0.00 | 56 | 1015.0 |
| 20260505201617 | 16 | 167 | 3.2 | 8.0 | 0.00 | 0.00 | 0.00 | 55 | 1015.0 |
| 20260505200537 | 17 | 176 | 1.6 | 9.7 | 0.00 | 0.00 | 0.00 | 54 | 1015.0 |
| 20260505195516 | 17 | 158 | 1.6 | 6.4 | 0.00 | 0.00 | 0.00 | 53 | 1015.0 |
| 20260505194517 | 17 | 152 | 1.6 | 6.4 | 0.00 | 0.00 | 0.00 | 53 | 1015.0 |
| 20260505193515 | 16 | 188 | 4.8 | 12.9 | 0.00 | 0.00 | 0.00 | 55 | 1014.9 |
| 20260505192516 | 17 | 224 | 8.0 | 11.3 | 0.00 | 0.00 | 0.00 | 54 | 1014.9 |
| 20260505191516 | 17 | 218 | 8.0 | 12.9 | 0.00 | 0.00 | 0.00 | 52 | 1014.7 |
| 20260505190516 | 19 | 259 | 4.8 | 9.7 | 0.00 | 0.00 | 0.00 | 48 | 1014.6 |
| 20260505185517 | 20 | 179 | 6.4 | 11.3 | 0.00 | 0.00 | 0.00 | 45 | 1014.5 |
| 20260505184517 | 20 | 145 | 1.6 | 8.0 | 0.00 | 0.00 | 0.00 | 44 | 1014.4 |
| 20260505183515 | 20 | 196 | 6.4 | 12.9 | 0.00 | 0.00 | 0.00 | 42 | 1014.2 |
| 20260505182516 | 21 | 164 | 1.6 | 12.9 | 0.00 | 0.00 | 0.00 | 41 | 1014.1 |
| 20260505181516 | 21 | 0 | 4.8 | 17.7 | 0.00 | 0.00 | 0.00 | 41 | 1014.1 |
| 20260505180516 | 21 | 0 | 8.0 | 12.9 | 0.00 | 0.00 | 0.00 | 41 | 1014.0 |
| 20260505175515 | 21 | 0 | 6.4 | 14.5 | 0.00 | 0.00 | 0.00 | 42 | 1014.0 |
| 20260505174516 | 21 | 0 | 9.7 | 16.1 | 0.00 | 0.00 | 0.00 | 43 | 1013.9 |
| 20260505173517 | 21 | 0 | 4.8 | 9.7 | 0.00 | 0.00 | 0.00 | 44 | 1014.0 |
| 20260505172517 | 22 | 0 | 4.8 | 8.0 | 0.00 | 0.00 | 0.00 | 43 | 1014.1 |
| 20260505171515 | 23 | 0 | 1.6 | 6.4 | 0.00 | 0.00 | 0.00 | 41 | 1014.0 |
| 20260505170515 | 23 | 0 | 3.2 | 6.4 | 0.00 | 0.00 | 0.00 | 37 | 1014.0 |
| 20260505165517 | 24 | 48 | 4.8 | 12.9 | 0.00 | 0.00 | 0.00 | 33 | 1013.8 |
| 20260505164535 | 24 | 36 | 6.4 | 11.3 | 0.00 | 0.00 | 0.00 | 33 | 1013.9 |
| 20260505163517 | 24 | 55 | 8.0 | 16.1 | 0.00 | 0.00 | 0.00 | 33 | 1013.9 |
| 20260505162515 | 25 | 50 | 6.4 | 16.1 | 0.00 | 0.00 | 0.00 | 34 | 1013.8 |
| 20260505161517 | 25 | 51 | 8.0 | 16.1 | 0.00 | 0.00 | 0.00 | 33 | 1014.0 |
| 20260505160535 | 25 | 51 | 9.7 | 19.3 | 0.00 | 0.00 | 0.00 | 32 | 1014.0 |
| 20260505152517 | 25 | 46 | 11.3 | 20.9 | 0.00 | 0.00 | 0.00 | 36 | 1014.1 |
| 20260505151515 | 25 | 46 | 9.7 | 20.9 | 0.00 | 0.00 | 0.00 | 36 | 1014.0 |
| 20260505150515 | 25 | 39 | 9.7 | 20.9 | 0.00 | 0.00 | 0.00 | 39 | 1014.1 |
| 20260505140515 | 25 | 35 | 12.9 | 19.3 | 0.00 | 0.00 | 0.00 | 39 | 1014.2 |
| 20260505124536 | 23 | 48 | 11.3 | 19.3 | 0.00 | 0.00 | 0.00 | 44 | 1014.9 |
| 20260505123537 | 23 | 56 | 9.7 | 16.1 | 0.00 | 0.00 | 0.00 | 43 | 1015.0 |
| 20260505122515 | 23 | 54 | 9.7 | 16.1 | 0.00 | 0.00 | 0.00 | 42 | 1015.0 |
| 20260505121515 | 22 | 46 | 6.4 | 17.7 | 0.00 | 0.00 | 0.00 | 47 | 1015.1 |
| 20260505120517 | 22 | 46 | 11.3 | 17.7 | 0.00 | 0.00 | 0.00 | 47 | 1015.2 |
| 20260505115516 | 22 | 71 | 11.3 | 17.7 | 0.00 | 0.00 | 0.00 | 48 | 1015.3 |
| 20260505114515 | 22 | 39 | 9.7 | 14.5 | 0.00 | 0.00 | 0.00 | 48 | 1015.4 |
| 20260505113516 | 22 | 43 | 6.4 | 14.5 | 0.00 | 0.00 | 0.00 | 51 | 1015.5 |
| 20260505112517 | 23 | 34 | 8.0 | 14.5 | 0.00 | 0.00 | 0.00 | 51 | 1015.5 |
| 20260505111517 | 23 | 31 | 4.8 | 14.5 | 0.00 | 0.00 | 0.00 | 50 | 1015.6 |
| 20260505110517 | 23 | 36 | 4.8 | 12.9 | 0.00 | 0.00 | 0.00 | 49 | 1015.7 |
| 20260505101516 | 23 | 58 | 4.8 | 8.0 | 0.00 | 0.00 | 0.00 | 44 | 1015.9 |
| 20260505100515 | 22 | 32 | 4.8 | 9.7 | 0.00 | 0.00 | 0.00 | 46 | 1016.0 |
| 20260505095537 | 22 | 33 | 6.4 | 14.5 | 0.00 | 0.00 | 0.00 | 48 | 1016.2 |
| 20260505094515 | 21 | 1 | 6.4 | 16.1 | 0.00 | 0.00 | 0.00 | 49 | 1016.3 |
| 20260505093516 | 21 | 12 | 8.0 | 14.5 | 0.00 | 0.00 | 0.00 | 47 | 1016.4 |
| 20260505092311 | -17 | 0.0 | 0.0 | 0.00 | 0.00 | 0.00 | |||
| 20260505090038 | 21 | 37 | 6.4 | 14.5 | 0.00 | 0.00 | 0.00 | 49 | 1016.7 |
| 20260505085018 | 20 | 47 | 6.4 | 11.3 | 0.00 | 0.00 | 0.00 | 52 | 1016.6 |
| 20260505084017 | 20 | 59 | 6.4 | 12.9 | 0.00 | 0.00 | 0.00 | 53 | 1016.8 |
| 20260505083019 | 20 | 71 | 3.2 | 14.5 | 0.00 | 0.00 | 0.00 | 55 | 1016.9 |
| 20260505082015 | 19 | 52 | 4.8 | 12.9 | 0.00 | 0.00 | 0.00 | 56 | 1016.9 |
| 20260505081015 | 19 | 43 | 6.4 | 12.9 | 0.00 | 0.00 | 0.00 | 56 | 1016.9 |
| 20260505080018 | 19 | 45 | 4.8 | 9.7 | 0.00 | 0.00 | 0.00 | 58 | 1016.9 |
| 20260505075017 | 18 | 36 | 3.2 | 9.7 | 0.00 | 0.00 | 0.00 | 58 | 1017.0 |
| 20260505074016 | 19 | 24 | 3.2 | 8.0 | 0.00 | 0.00 | 0.00 | 58 | 1017.0 |
| 20260505071016 | 19 | 316 | 3.2 | 6.4 | 0.00 | 0.00 | 0.00 | 51 | 1017.1 |
| 20260505070016 | 18 | 273 | 1.6 | 9.7 | 0.00 | 0.00 | 0.00 | 52 | 1017.1 |
| 20260505065017 | 18 | 277 | 3.2 | 9.7 | 0.00 | 0.00 | 0.00 | 53 | 1017.1 |
| 20260505064019 | 17 | 274 | 4.8 | 12.9 | 0.00 | 0.00 | 0.00 | 55 | 1017.1 |
| 20260505063018 | 16 | 276 | 6.4 | 16.1 | 0.00 | 0.00 | 0.00 | 56 | 1017.0 |
| 20260505062016 | 16 | 280 | 4.8 | 12.9 | 0.00 | 0.00 | 0.00 | 58 | 1017.1 |
| 20260505061018 | 16 | 280 | 6.4 | 12.9 | 0.00 | 0.00 | 0.00 | 58 | 1017.1 |
| 20260505060016 | 16 | 273 | 4.8 | 11.3 | 0.00 | 0.00 | 0.00 | 58 | 1017.0 |